Terug naar catalogus

COSMOS 2251 DEB

LostVLEO
NORAD 36467·DEBRIS·🇷🇺 Russia

Gelanceerd Jun 16, 1993 vanaf Plesetsk Cosmodrome

Loading…

Volgende Passages (komende 24 uur)

TLE

VerouderdSource: Space-Track

Epoch: Jul 17, 2026, 19:53 UTC

1 36467U 93036BBS 26198.82908655  .00031217  00000-0  20492-2 0  9999
2 36467  73.8180 246.4508 0020872 124.9429 355.8968 15.07330777682992

Volg COSMOS 2251 DEB in realtime met AllMySat

Download on the App Store